Aérodrome :
LOGIN :

S'inscrire | Disclaimer

   EN    FR    IT 

 










Légende :    VFR   VFR Marginal   IFR   IFR Intensif   IFR Très Intensif
Visi : 
Plafond : 
>= 8 km
>= 3000ft
5 à 8 km
1000 à 3000 ft
1500m à 5 km
500 à 1000 ft
800 à 1500m
200 à 500 ft
< 800m
< 200 ft
Symboles :   Orages  Brouillard  Fortes neiges  Fortes précipitations  Vent > 20 kt
SIGMETs :   Divers  Orages  Givrage  Turbulence  Onde Orograph.  Cendres Volcan.







- Altitude de l'aérodrome : 989 ft
- Code IATA : TRN


LIMF - Torino Caselle

DERNIER METAR :
  • 221020Z 19004KT 130V250 CAVOK 21/12 Q1014

METARs EXPIRÉS :
  • 220950Z VRB05KT CAVOK 20/12 Q1014
  • 220920Z 16003KT 100V260 CAVOK 20/11 Q1014
  • 220850Z 19004KT 140V250 CAVOK 19/13 Q1014
  • 220820Z VRB03KT CAVOK 18/13 Q1014
  • 220750Z VRB03KT CAVOK 17/13 Q1014

TAF TAF LIMF
Valide du 22 à 06h jusqu'au 23 à 06h UTC


220500Z 2206/2306 VRB05KT 9999 SCT040
TEMPO 2215/2303 TSRA
Pas de NOTAMs connus pour ce terrain.



MET'MAP, la Météo Aéronautique d'un coup d'oeil ! - Copyright ORBIFLY Décembre 2007 - Disclaimer

ORBIFLY MET'MAP TEAM :

Programmation & Développement : Alexandra Zaïnal
Conception & Développement : Baudouin d'Aumeries
Co-Programmation & Développement : Marc-Olivier Méhu
Soutien technique & logistique : Manuel Goepfert

Contact : metmap@orbifly.com




SOURCES & CREDITS :

   NOAA